星链-1659 (STARLINK-1659 )

导读 | 豆包AI

STARLINK-1659是美国SpaceX星链星座中的一颗卫星,于2020年10月6日发射升空,属于星链低轨互联网星座组网卫星,旨在为全球提供高速低延迟宽带互联网服务,依托近地轨道部署,补充完善全球网络覆盖能力,服务包括偏远地区在内的全球用户接入需求。

基本信息
目录编号:
46534
目录名称:
STARLINK-1659
国际标识:
2020-070C
轨道中心:
EARTH
卫星名称:
星链-1659
卫星全名:
星链-1659 (STARLINK-1659 )
卫星状态:
已陨落 最后检测时间 2025-05-06
发射日期:
2020-10-06 UTC
国别 :
美国 (US)
星等 :
--
轨道信息
数据来源 国际轨道数据
星历时间: 2025-05-06T15:29:35+0800
轨道信息已过期312天
半长轴: 6531.592km
偏心率: 0.0003797
轨道倾角: 53.022°
近地点辐角 301.239°
升交点赤经 54.981°
平近点角 199.391°
近地点: 150.976km
远地点: 155.938km
周期: 87.556分钟
每日圈数: 16.44653
详细信息
固有亮度:
5
最大亮度:
2.5
卫星平台:
Starlink V1.0
覆盖范围:
全球
运营商:
太空探索技术公司
运营商所在国:
美国
制造商(研发单位):
太空探索技术公司
制造商所在国:
美国
使用方式:
暂无
卫星简介
星链(Starlink)计划是由太空探索技术公司(SpaceX)提出的一个巨型低轨卫星互联网星座项目,计划在2019年至2024年间在太空搭建由约1.2万颗卫星组成的“星链”网络,其中1584颗将部署在地球上空550千米处的近地轨道,并从2020年开始工作。该卫星仍在工作。